[[{"header":{"parameterUnit":"m.s-1","parameterCategory":2,"la1":30.2991,"la2":30.254,"lo1":-89.0895,"lo2":-89.0444,"dy":0.0017,"dx":0.0017,"nx":28,"ny":28,"refTime":"2024-05-23T03:00:00:Z","depth":"0","parameterNumber":2,"parameterNumberName":"U-component_of_CURRENTS"},"data":[0,0,0,0,0,0,0,0,0,0,0,0,0,0,0,0,0,0,0,0,0,0,0,0,0,0,0,0,0,0,0,0,0,0,0,0,0,0,0,0,0,0,0,0,0,0,0,0,0,0,0,0,0,0,0,0,0,0,-0.2322,-0.2322,0,-0.2345,-0.2345,-0.2345,-0.232,-0.2319,-0.2319,-0.2318,-0.2288,-0.2288,-0.2288,0,0,0,0,0,0,0,0,0,0,0,0,0,-0.2258,-0.2259,-0.2322,-0.2322,-0.2323,-0.2345,-0.2345,-0.2345,-0.232,-0.2319,-0.2318,-0.2318,-0.2288,-0.2288,-0.2288,0,0,0,0,0,0,0,0,0,0,0,0,0,-0.2281,-0.2259,-0.2322,-0.2315,-0.2315,-0.2345,-0.2345,-0.2345,-0.232,-0.2319,-0.2318,-0.2317,-0.2288,-0.2288,-0.2288,-0.2309,0,0,-0.2287,-0.2287,0,0,0,0,0,0,0,0,-0.228,-0.2283,-0.2315,-0.2315,-0.2315,-0.233,-0.2311,-0.2331,-0.2321,-0.2316,-0.2318,-0.2317,-0.2299,-0.2298,-0.2303,-0.2308,-0.2306,-0.2287,-0.2287,-0.2287,-0.2287,0,0,0,0,0,0,0,-0.2278,-0.2282,-0.2329,-0.2316,-0.2316,-0.2311,-0.2313,-0.2315,-0.2311,-0.2316,-0.2315,-0.2321,-0.2299,-0.2303,-0.2302,-0.2306,-0.2287,-0.2287,-0.2287,-0.2287,-0.2339,-0.234,0,0,0,0,0,0,-0.2282,-0.2281,-0.2328,-0.233,-0.2297,-0.2313,-0.2315,-0.2325,-0.2312,-0.231,-0.2322,-0.232,-0.2304,-0.2302,-0.23,-0.2332,-0.2287,-0.2287,-0.2287,-0.2338,-0.2339,-0.2341,0,0,0,0,0,0,-0.228,-0.2286,-0.2327,-0.2307,-0.2312,-0.2316,-0.2327,-0.2326,-0.2325,-0.2318,-0.2314,-0.2322,-0.2303,-0.2301,-0.2307,-0.233,-0.2287,-0.2287,-0.2336,-0.2338,-0.234,-0.2389,0,0,0,0,0,0,-0.2278,-0.2285,-0.2288,-0.2308,-0.2314,-0.2348,-0.2328,-0.2327,-0.2332,-0.2329,-0.2316,-0.2313,-0.2302,-0.2308,-0.2307,-0.2329,-0.2287,-0.2334,-0.2337,-0.2339,-0.2386,-0.2393,-0.2399,0,0,0,0,0,-0.2276,-0.2286,-0.2288,-0.2294,-0.2319,-0.2349,-0.2351,-0.2348,-0.2333,-0.2341,-0.2333,-0.2313,-0.2325,-0.2309,-0.2308,-0.233,-0.2333,-0.2336,-0.2339,-0.2383,-0.2391,-0.2399,0,0,0,0,0,0,-0.2255,-0.2285,-0.2288,-0.2305,-0.2327,-0.2345,-0.2348,-0.235,-0.2351,-0.2342,-0.2328,-0.2325,-0.2344,-0.2332,-0.2314,-0.2355,-0.2327,-0.2331,-0.2361,-0.2369,-0.2375,-0.2374,-0.2286,0,0,0,0,0,-0.2255,-0.2268,-0.23,-0.2311,-0.2323,-0.2336,-0.2344,-0.2348,-0.2356,-0.2354,-0.2349,-0.2347,-0.236,-0.2358,-0.2366,-0.2382,-0.2353,-0.2398,-0.2405,-0.241,-0.241,-0.2399,-0.2404,-0.2352,-0.2352,-0.2352,0,0,-0.2247,-0.2266,-0.2272,-0.2307,-0.2318,-0.2351,-0.2337,-0.2355,-0.238,-0.2351,-0.2371,-0.237,-0.2372,-0.2396,-0.2403,-0.2384,-0.2408,-0.2414,-0.2419,-0.2416,-0.2403,-0.2408,-0.2412,-0.2354,-0.2354,-0.2353,0,0,-0.2249,-0.2259,-0.2277,-0.2304,-0.2334,-0.2352,-0.2359,-0.2384,-0.239,-0.2416,-0.2409,-0.2419,-0.243,-0.244,-0.2446,-0.2493,-0.2448,-0.2498,-0.2523,-0.2512,-0.2516,-0.2519,-0.2472,-0.2471,-0.2495,-0.2495,-0.2495,0,-0.2237,-0.2269,-0.2285,-0.2319,-0.2341,-0.2356,-0.2388,-0.2409,-0.2432,-0.244,-0.2426,-0.2454,-0.2454,-0.2488,-0.2509,-0.2508,-0.2479,-0.249,-0.2519,-0.2521,-0.2523,-0.2475,-0.2473,-0.2498,-0.2498,-0.2497,-0.2497,0,-0.2262,-0.2291,-0.2303,-0.2353,-0.2382,-0.2408,-0.2449,-0.2469,-0.2475,-0.249,-0.2516,-0.2519,-0.2528,-0.2542,-0.254,-0.2567,-0.2533,-0.2531,-0.2494,-0.2531,-0.2478,-0.2475,-0.2502,-0.2501,-0.25,-0.2499,0,0,-0.2221,-0.2306,-0.2307,-0.2339,-0.2401,-0.2425,-0.2476,-0.252,-0.2539,-0.2557,-0.2575,-0.261,-0.2595,-0.2602,-0.26,-0.2597,-0.2589,-0.2572,-0.257,-0.2516,-0.2534,-0.2449,-0.2437,-0.2589,-0.2589,-0.2589,-0.2484,0,-0.2232,-0.2298,-0.234,-0.2399,-0.2435,-0.2476,-0.2522,-0.2563,-0.2583,-0.2604,-0.261,-0.2627,-0.2624,-0.2622,-0.2624,-0.2605,-0.2585,-0.2615,-0.2514,-0.251,-0.2423,-0.2432,-0.2353,-0.2248,-0.248,-0.2479,-0.2479,0,-0.2234,-0.2283,-0.2344,-0.2426,-0.2444,-0.2481,-0.2538,-0.2583,-0.2626,-0.2638,-0.2651,-0.2651,-0.2662,-0.2647,-0.2613,-0.263,-0.2585,-0.256,-0.2555,-0.2457,-0.242,-0.2253,-0.2233,-0.2229,-0.2473,-0.2473,-0.2474,0,-0.2186,-0.2278,-0.2323,-0.2352,-0.2451,-0.2476,-0.2521,-0.2578,-0.2608,-0.2647,-0.2652,-0.2667,-0.2656,-0.2628,-0.2577,-0.2594,-0.2515,-0.2528,-0.2402,-0.2394,-0.2297,-0.228,-0.2252,-0.2491,-0.2491,-0.2491,-0.2491,0,-0.2174,-0.2207,-0.2301,-0.2326,-0.2368,-0.2448,-0.2488,-0.2532,-0.259,-0.2612,-0.2652,-0.2647,-0.2652,-0.261,-0.2569,-0.2459,-0.25,-0.2397,-0.2366,-0.231,-0.2296,-0.2263,-0.2291,-0.2487,-0.2488,-0.2489,-0.2489,0,-0.2104,-0.2175,-0.2223,-0.232,-0.2345,-0.2365,-0.2455,-0.2487,-0.255,-0.2573,-0.2582,-0.2619,-0.2562,-0.2534,-0.2473,-0.2425,-0.2302,-0.2293,-0.2207,-0.2168,-0.2055,-0.2088,-0.2013,-0.1951,-0.2141,-0.2138,-0.2136,0,-0.2073,-0.2092,-0.218,-0.2203,-0.224,-0.2295,-0.2336,-0.2436,-0.2479,-0.2538,-0.2541,-0.2513,-0.2457,-0.2332,-0.2263,-0.2151,-0.2171,-0.2015,-0.2045,-0.2027,-0.2042,-0.2078,-0.2035,-0.1926,-0.1922,-0.1919,-0.1917,0,-0.1993,-0.2018,-0.2055,-0.2104,-0.2145,-0.2202,-0.2272,-0.2297,-0.2408,-0.2408,-0.2378,-0.233,-0.2251,-0.2117,-0.2015,-0.1943,-0.1982,-0.1946,-0.1962,-0.1895,-0.1899,-0.183,-0.2002,-0.1889,-0.1892,-0.1894,-0.1896,-0.1897,-0.1902,-0.1901,-0.1946,-0.198,-0.2035,-0.2079,-0.2028,-0.2108,-0.2109,-0.2036,-0.2177,-0.2051,-0.2031,-0.1872,-0.1802,-0.1699,-0.1756,-0.166,-0.1702,-0.1742,-0.1684,-0.1775,-0.1614,-0.1615,-0.1616,-0.1617,-0.1618,0,-0.1784,-0.1799,-0.1826,-0.1859,-0.1862,-0.193,-0.195,-0.1845,-0.1732,-0.175,-0.1685,-0.175,-0.166,-0.1646,-0.1589,-0.1504,-0.1483,-0.1465,-0.1523,-0.149,-0.1586,-0.158,-0.1363,-0.1363,-0.1363,-0.1363,-0.1363,-0.1363,-0.172,-0.1698,-0.1718,-0.167,-0.1679,-0.1545,-0.1485,-0.135,-0.1285,-0.1148,-0.1167,-0.1216,-0.1402,-0.1624,-0.1546,-0.1457,-0.1436,-0.1378,-0.1399,-0.1512,-0.1535,-0.1558,-0.1558,-0.134,-0.134,-0.1255,-0.1254,-0.1254]},{"header":{"parameterUnit":"m.s-1","parameterCategory":2,"la1":30.2991,"la2":30.254,"lo1":-89.0895,"lo2":-89.0444,"dy":0.0017,"dx":0.0017,"nx":28,"ny":28,"refTime":"2024-05-23T03:00:00:Z","depth":"0","parameterNumber":3,"parameterNumberName":"V-component_of_CURRENTS"},"data":[0,0,0,0,0,0,0,0,0,0,0,0,0,0,0,0,0,0,0,0,0,0,0,0,0,0,0,0,0,0,0,0,0,0,0,0,0,0,0,0,0,0,0,0,0,0,0,0,0,0,0,0,0,0,0,0,0,0,-0.0111,-0.0111,0,-0.0035,-0.0034,-0.0034,0.0031,0.0032,0.0032,0.0033,0.0159,0.0161,0.0164,0,0,0,0,0,0,0,0,0,0,0,0,0,-0.0158,-0.0158,-0.0111,-0.0111,-0.011,-0.0036,-0.0034,-0.0033,0.0031,0.0032,0.0032,0.0033,0.0158,0.0161,0.0164,0,0,0,0,0,0,0,0,0,0,0,0,0,-0.0115,-0.0158,-0.0112,-0.0069,-0.0065,-0.0036,-0.0034,-0.0033,0.0031,0.0032,0.0033,0.0034,0.0157,0.0161,0.0165,0.0172,0,0,0.0177,0.0179,0,0,0,0,0,0,0,0,-0.0118,-0.0113,-0.0076,-0.0072,-0.0067,-0.0012,-0.0005,0.0038,0.0031,-0.0004,0.0033,0.0034,0.0105,0.0113,0.0126,0.0178,0.0183,0.0178,0.018,0.0182,0.0183,0,0,0,0,0,0,0,-0.0121,-0.0116,-0.008,-0.0076,-0.007,-0.004,-0.0033,0.0004,0.0046,-0.0001,0.0003,0.001,0.0108,0.0122,0.013,0.0185,0.0178,0.0181,0.0184,0.0186,0.0267,0.0267,0,0,0,0,0,0,-0.0136,-0.0119,-0.0083,-0.0078,-0.0092,-0.004,-0.0032,-0.003,0.0045,0.0056,0.0009,0.0012,0.0115,0.0125,0.0135,0.0157,0.0182,0.0186,0.0188,0.0268,0.0267,0.0267,0,0,0,0,0,0,-0.0137,-0.0133,-0.0086,-0.0097,-0.0089,-0.0041,-0.0038,-0.0029,-0.0013,0.0052,0.0064,0.0015,0.0116,0.0129,0.0166,0.0162,0.0188,0.0192,0.0268,0.0268,0.0267,0.0196,0,0,0,0,0,0,-0.0139,-0.0134,-0.0141,-0.0099,-0.0089,-0.0078,-0.0039,-0.0028,-0.0011,-0.0006,0.0061,0.0073,0.0118,0.0159,0.017,0.0168,0.0195,0.0269,0.0268,0.0267,0.0199,0.0193,0.0188,0,0,0,0,0,-0.0141,-0.0157,-0.0141,-0.0137,-0.0099,-0.0079,-0.0071,-0.0032,-0.0012,-0.0013,0.0035,0.0071,0.0163,0.0162,0.0175,0.0174,0.0269,0.0268,0.0267,0.0201,0.0194,0.0188,0,0,0,0,0,0,-0.0184,-0.0151,-0.0133,-0.0139,-0.0114,-0.0068,-0.0068,-0.004,-0.0004,0.0003,0.0067,0.0083,0.0113,0.0151,0.0148,0.0196,0.0222,0.0223,0.0167,0.0161,0.0156,0.0149,0.0198,0,0,0,0,0,-0.0197,-0.0199,-0.0161,-0.0167,-0.0158,-0.0114,-0.0102,-0.0076,-0.0038,-0.0021,0.0026,0.0076,0.0119,0.0145,0.0184,0.0209,0.0262,0.0218,0.0212,0.0207,0.021,0.0289,0.0291,0.0265,0.0265,0.0265,0,0,-0.0215,-0.0198,-0.0199,-0.0176,-0.0153,-0.015,-0.0105,-0.0094,-0.0084,-0.0013,0.001,0.0057,0.012,0.015,0.0167,0.0182,0.024,0.0207,0.0202,0.0208,0.0288,0.0291,0.0294,0.0264,0.0264,0.0264,0,0,-0.0257,-0.0238,-0.0255,-0.0239,-0.0213,-0.0183,-0.0184,-0.0142,-0.0117,-0.0092,-0.0035,0.001,0.0066,0.0118,0.0151,0.0141,0.0206,0.0148,0.0122,0.0197,0.0201,0.0204,0.0261,0.027,0.0149,0.0149,0.0149,0,-0.0282,-0.0293,-0.0257,-0.0268,-0.0258,-0.0203,-0.0214,-0.0184,-0.0135,-0.0109,-0.0096,0.0007,0.0055,0.0114,0.0108,0.013,0.0178,0.0139,0.0191,0.0196,0.0201,0.0259,0.027,0.0145,0.0146,0.0146,0.0147,0,-0.0334,-0.034,-0.035,-0.0341,-0.0326,-0.0328,-0.028,-0.0259,-0.0222,-0.0179,-0.0121,-0.0052,0.0016,0.0033,0.0067,0.0123,0.0146,0.0172,0.0206,0.0199,0.026,0.0273,0.014,0.0142,0.0143,0.0144,0,0,-0.0392,-0.0388,-0.0392,-0.0395,-0.0363,-0.0355,-0.0337,-0.0294,-0.0268,-0.0216,-0.0172,-0.0102,-0.0051,-0.0011,0.0045,0.0107,0.0172,0.0145,0.0151,0.0199,0.033,0.0372,0.0391,0.0209,0.0212,0.0213,0.0354,0,-0.0443,-0.0484,-0.0458,-0.048,-0.0492,-0.0432,-0.0414,-0.0365,-0.0308,-0.0252,-0.0164,-0.0107,-0.007,-0.0036,0.0031,0.0144,0.0204,0.0131,0.0332,0.0338,0.0375,0.0407,0.0453,0.0585,0.0367,0.0369,0.0371,0,-0.0499,-0.0517,-0.0557,-0.054,-0.0537,-0.0536,-0.0481,-0.0457,-0.036,-0.0311,-0.023,-0.0155,-0.0055,-0.0027,0.016,0.0112,0.0209,0.0292,0.03,0.0377,0.0405,0.0561,0.0617,0.0765,0.0391,0.039,0.0388,0,-0.0561,-0.0579,-0.0612,-0.0611,-0.0587,-0.0581,-0.0558,-0.0479,-0.0443,-0.0344,-0.0296,-0.017,-0.0089,0.0043,0.0209,0.019,0.0421,0.0421,0.055,0.0553,0.0652,0.0661,0.0878,0.0552,0.0551,0.0551,0.055,0,-0.0623,-0.0645,-0.0646,-0.0666,-0.0686,-0.0642,-0.0632,-0.0584,-0.0498,-0.043,-0.0333,-0.0244,-0.0065,0.0089,0.0217,0.0434,0.0435,0.0559,0.0603,0.0626,0.063,0.0812,0.0855,0.0556,0.0555,0.0554,0.0553,0,-0.0683,-0.0687,-0.0722,-0.072,-0.0721,-0.0735,-0.0695,-0.0673,-0.0585,-0.049,-0.0458,-0.0279,-0.007,0.0111,0.0352,0.0461,0.0753,0.0717,0.0721,0.0762,0.0998,0.1033,0.129,0.1394,0.0879,0.0881,0.0882,0,-0.0718,-0.0746,-0.0776,-0.0801,-0.0804,-0.0813,-0.081,-0.0735,-0.0678,-0.0493,-0.0434,-0.0229,-0.0049,0.0299,0.0532,0.0777,0.0874,0.0944,0.0916,0.1038,0.1111,0.1133,0.1203,0.1015,0.1018,0.102,0.1022,0,-0.0775,-0.0784,-0.0815,-0.0874,-0.0894,-0.0894,-0.0862,-0.0798,-0.066,-0.0526,-0.0309,-0.0163,0.0136,0.0452,0.0742,0.0879,0.1066,0.0995,0.1145,0.1259,0.128,0.1392,0.0875,0.1042,0.104,0.1038,0.1037,0.1036,-0.0805,-0.0845,-0.0887,-0.0931,-0.0955,-0.0905,-0.0823,-0.0718,-0.0547,-0.0235,-0.0184,0.0113,0.0372,0.08,0.097,0.1313,0.1257,0.1397,0.1436,0.1453,0.1545,0.1057,0.1253,0.1253,0.1252,0.1251,0.1251,0,-0.0833,-0.0876,-0.0935,-0.0949,-0.0939,-0.094,-0.0806,-0.0657,-0.0361,-0.0115,0.0127,0.0504,0.0868,0.1137,0.1552,0.1739,0.1788,0.1821,0.1877,0.1933,0.1538,0.1535,0.1776,0.1776,0.1776,0.1775,0.1775,0.1775,-0.0849,-0.091,-0.0939,-0.0917,-0.0893,-0.0747,-0.0612,-0.0393,-0.0178,0.0284,0.0586,0.0728,0.1065,0.1686,0.2096,0.2131,0.2307,0.2285,0.238,0.2103,0.2067,0.2031,0.2043,0.2386,0.2386,0.2781,0.2785,0.2788]}],[{"header":{"parameterUnit":"m.s-1","parameterCategory":2,"la1":30.2991,"la2":30.254,"lo1":-89.0895,"lo2":-89.0444,"dy":0.0017,"dx":0.0017,"nx":28,"ny":28,"refTime":"2024-05-23T03:00:00:Z","depth":"2","parameterNumber":2,"parameterNumberName":"U-component_of_CURRENTS"},"data":[0,0,0,0,0,0,0,0,0,0,0,0,0,0,0,0,0,0,0,0,0,0,0,0,0,0,0,0,0,0,0,0,0,0,0,0,0,0,0,0,0,0,0,0,0,0,0,0,0,0,0,0,0,0,0,0,0,0,-0.2148,-0.2148,0,-0.2176,-0.2176,-0.2176,-0.2157,-0.2156,-0.2155,-0.2155,-0.2135,-0.2135,-0.2136,0,0,0,0,0,0,0,0,0,0,0,0,0,-0.2078,-0.2079,-0.2148,-0.2148,-0.2149,-0.2176,-0.2176,-0.2176,-0.2157,-0.2156,-0.2155,-0.2154,-0.2135,-0.2135,-0.2136,0,0,0,0,0,0,0,0,0,0,0,0,0,-0.2106,-0.208,-0.2148,-0.2144,-0.2144,-0.2176,-0.2176,-0.2176,-0.2157,-0.2156,-0.2155,-0.2154,-0.2135,-0.2135,-0.2136,-0.2157,0,0,-0.2136,-0.2136,0,0,0,0,0,0,0,0,-0.2104,-0.2108,-0.2144,-0.2144,-0.2145,-0.2164,-0.2145,-0.2168,-0.2157,-0.215,-0.2155,-0.2153,-0.2143,-0.2142,-0.2147,-0.2156,-0.2155,-0.2136,-0.2136,-0.2136,-0.2136,0,0,0,0,0,0,0,-0.2102,-0.2107,-0.2157,-0.2145,-0.2145,-0.2142,-0.2144,-0.2149,-0.2149,-0.215,-0.2149,-0.2157,-0.2142,-0.2147,-0.2146,-0.2155,-0.2136,-0.2136,-0.2136,-0.2136,-0.2189,-0.2191,0,0,0,0,0,0,-0.2105,-0.2105,-0.2156,-0.2158,-0.2124,-0.2144,-0.2147,-0.2157,-0.215,-0.2149,-0.2157,-0.2156,-0.2147,-0.2146,-0.2146,-0.2179,-0.2136,-0.2136,-0.2137,-0.2188,-0.219,-0.2191,0,0,0,0,0,0,-0.2103,-0.2109,-0.2155,-0.2133,-0.2139,-0.2146,-0.2158,-0.2158,-0.2162,-0.2156,-0.2154,-0.2161,-0.2146,-0.2145,-0.2156,-0.2177,-0.2137,-0.2137,-0.2187,-0.2189,-0.219,-0.2239,0,0,0,0,0,0,-0.2101,-0.2108,-0.2114,-0.2134,-0.2141,-0.2178,-0.2159,-0.2159,-0.2169,-0.2167,-0.2159,-0.2156,-0.2146,-0.2156,-0.2156,-0.2177,-0.2137,-0.2185,-0.2187,-0.219,-0.2236,-0.2242,-0.2248,0,0,0,0,0,-0.2099,-0.2112,-0.2115,-0.2121,-0.2149,-0.2179,-0.2182,-0.2182,-0.217,-0.218,-0.2174,-0.2156,-0.2171,-0.2157,-0.2157,-0.2178,-0.2184,-0.2187,-0.219,-0.2233,-0.2241,-0.2248,0,0,0,0,0,0,-0.2082,-0.2112,-0.2115,-0.2136,-0.2158,-0.2176,-0.2184,-0.2187,-0.2191,-0.2185,-0.2172,-0.217,-0.219,-0.218,-0.2164,-0.2202,-0.2175,-0.2178,-0.2208,-0.2216,-0.2222,-0.2219,-0.2137,0,0,0,0,0,-0.2084,-0.21,-0.213,-0.2145,-0.2158,-0.2172,-0.2182,-0.2187,-0.2196,-0.2197,-0.2194,-0.2193,-0.2204,-0.2205,-0.2211,-0.223,-0.2204,-0.2244,-0.2251,-0.2256,-0.2255,-0.2246,-0.2251,-0.2201,-0.2201,-0.2201,0,0,-0.208,-0.2099,-0.2107,-0.2142,-0.2156,-0.2186,-0.2175,-0.2197,-0.222,-0.2195,-0.2216,-0.2216,-0.2216,-0.2239,-0.2246,-0.223,-0.2255,-0.2259,-0.2264,-0.226,-0.225,-0.2254,-0.2258,-0.2203,-0.2202,-0.2202,0,0,-0.2087,-0.21,-0.212,-0.2145,-0.2177,-0.2193,-0.2202,-0.2228,-0.2235,-0.2261,-0.2252,-0.2263,-0.2275,-0.2282,-0.2286,-0.233,-0.2291,-0.2335,-0.2359,-0.2351,-0.2355,-0.2358,-0.2319,-0.2318,-0.2334,-0.2334,-0.2334,0,-0.208,-0.2111,-0.2129,-0.2161,-0.2182,-0.2199,-0.223,-0.225,-0.2274,-0.2282,-0.2272,-0.2297,-0.2297,-0.2326,-0.2344,-0.2344,-0.232,-0.233,-0.2358,-0.236,-0.2362,-0.2322,-0.2321,-0.2336,-0.2336,-0.2336,-0.2336,0,-0.2106,-0.2135,-0.2149,-0.2195,-0.2222,-0.225,-0.2287,-0.2308,-0.2316,-0.233,-0.2356,-0.2358,-0.2367,-0.2378,-0.2375,-0.24,-0.2371,-0.2368,-0.2335,-0.237,-0.2326,-0.2323,-0.234,-0.2339,-0.2339,-0.2338,0,0,-0.2076,-0.2153,-0.2156,-0.2184,-0.2242,-0.2265,-0.2311,-0.2352,-0.2371,-0.2391,-0.2409,-0.2439,-0.2428,-0.2433,-0.2431,-0.2429,-0.2426,-0.2408,-0.2406,-0.2362,-0.2383,-0.2304,-0.2293,-0.2426,-0.2427,-0.2427,-0.2341,0,-0.2087,-0.2148,-0.2186,-0.2239,-0.2273,-0.2311,-0.2352,-0.239,-0.2411,-0.2433,-0.244,-0.2456,-0.2453,-0.2454,-0.2457,-0.2438,-0.2423,-0.2448,-0.2362,-0.2359,-0.2279,-0.2289,-0.2141,-0.2047,-0.2338,-0.2338,-0.2337,0,-0.2092,-0.2137,-0.2192,-0.2264,-0.228,-0.2313,-0.2367,-0.2407,-0.2448,-0.2462,-0.2478,-0.248,-0.2491,-0.2478,-0.2451,-0.2465,-0.2428,-0.2406,-0.2402,-0.2308,-0.2276,-0.2063,-0.2031,-0.2332,-0.2333,-0.2333,-0.2333,0,-0.205,-0.2133,-0.2173,-0.22,-0.2287,-0.231,-0.235,-0.2404,-0.2431,-0.2472,-0.248,-0.2496,-0.2488,-0.2467,-0.2425,-0.2438,-0.2373,-0.2382,-0.2269,-0.2262,-0.2108,-0.2087,-0.2351,-0.2351,-0.2352,-0.2352,-0.2352,0,-0.2041,-0.207,-0.2155,-0.2177,-0.2214,-0.2286,-0.2321,-0.2363,-0.2417,-0.2432,-0.2481,-0.2476,-0.2485,-0.2452,-0.2419,-0.2323,-0.2362,-0.2265,-0.2238,-0.2119,-0.2101,-0.2333,-0.2332,-0.2349,-0.2349,-0.235,-0.2351,0,-0.1978,-0.2043,-0.2084,-0.217,-0.2193,-0.2212,-0.2289,-0.2313,-0.2379,-0.2397,-0.2407,-0.2448,-0.2403,-0.2386,-0.2336,-0.2293,-0.2227,-0.218,-0.2026,-0.1982,-0.2121,-0.2124,-0.2049,-0.2046,-0.2043,-0.204,-0.2038,0,-0.1951,-0.1967,-0.2045,-0.2062,-0.2096,-0.2144,-0.2173,-0.2266,-0.2291,-0.236,-0.2351,-0.2344,-0.2294,-0.2196,-0.2131,-0.2039,-0.2117,-0.1852,-0.1862,-0.211,-0.2092,-0.2099,-0.2106,-0.1667,-0.1662,-0.1658,-0.1655,0,-0.1878,-0.19,-0.1931,-0.1968,-0.1998,-0.2035,-0.2085,-0.2098,-0.2195,-0.2212,-0.2203,-0.2174,-0.2105,-0.1949,-0.1856,-0.1788,-0.1863,-0.1767,-0.2054,-0.1778,-0.1746,-0.173,-0.1749,-0.1619,-0.1623,-0.1625,-0.1627,-0.1629,-0.1794,-0.1792,-0.1827,-0.1844,-0.1881,-0.1889,-0.1858,-0.1925,-0.1928,-0.1917,-0.1992,-0.1895,-0.1881,-0.1653,-0.156,-0.1493,-0.162,-0.1553,-0.1567,-0.1585,-0.1567,-0.1533,-0.1361,-0.1363,-0.1364,-0.1366,-0.1367,0,-0.1684,-0.1692,-0.1704,-0.1708,-0.1675,-0.1749,-0.1763,-0.1707,-0.1648,-0.1692,-0.1659,-0.1481,-0.1377,-0.1363,-0.1214,-0.1184,-0.1187,-0.1129,-0.1145,-0.118,-0.1211,-0.1177,-0.0866,-0.0864,-0.0863,-0.0862,0,0,-0.1625,-0.159,-0.1592,-0.1488,-0.1485,-0.1392,-0.136,-0.1318,-0.1311,-0.1237,-0.1202,-0.1295,-0.1319,-0.1099,-0.1047,-0.0934,-0.1044,-0.088,-0.1281,-0.1334,-0.1364,-0.1451,-0.1436,0,0,0,0,0]},{"header":{"parameterUnit":"m.s-1","parameterCategory":2,"la1":30.2991,"la2":30.254,"lo1":-89.0895,"lo2":-89.0444,"dy":0.0017,"dx":0.0017,"nx":28,"ny":28,"refTime":"2024-05-23T03:00:00:Z","depth":"2","parameterNumber":3,"parameterNumberName":"V-component_of_CURRENTS"},"data":[0,0,0,0,0,0,0,0,0,0,0,0,0,0,0,0,0,0,0,0,0,0,0,0,0,0,0,0,0,0,0,0,0,0,0,0,0,0,0,0,0,0,0,0,0,0,0,0,0,0,0,0,0,0,0,0,0,0,-0.0183,-0.0182,0,-0.0106,-0.0105,-0.0104,-0.005,-0.005,-0.005,-0.0049,0.0069,0.0071,0.0074,0,0,0,0,0,0,0,0,0,0,0,0,0,-0.0243,-0.0242,-0.0183,-0.0182,-0.0181,-0.0106,-0.0105,-0.0104,-0.005,-0.005,-0.0049,-0.0049,0.0068,0.0071,0.0075,0,0,0,0,0,0,0,0,0,0,0,0,0,-0.0196,-0.0242,-0.0183,-0.0146,-0.0142,-0.0106,-0.0105,-0.0103,-0.005,-0.005,-0.0049,-0.0049,0.0067,0.0071,0.0075,0.0091,0,0,0.0088,0.009,0,0,0,0,0,0,0,0,-0.0199,-0.0194,-0.0153,-0.0149,-0.0144,-0.0088,-0.0083,-0.0036,-0.005,-0.0084,-0.0049,-0.0049,0.0019,0.0027,0.0041,0.0097,0.0102,0.0088,0.0091,0.0093,0.0094,0,0,0,0,0,0,0,-0.0202,-0.0196,-0.0152,-0.0152,-0.0147,-0.0119,-0.0112,-0.0073,-0.0035,-0.0081,-0.0078,-0.007,0.0022,0.0037,0.0045,0.0104,0.0088,0.0092,0.0095,0.0096,0.0188,0.0188,0,0,0,0,0,0,-0.0216,-0.02,-0.0154,-0.0149,-0.0172,-0.0119,-0.0111,-0.0106,-0.0036,-0.0026,-0.0071,-0.0068,0.003,0.004,0.0049,0.0074,0.0093,0.0097,0.0099,0.0188,0.0188,0.0188,0,0,0,0,0,0,-0.0218,-0.0213,-0.0157,-0.0173,-0.0164,-0.0119,-0.0113,-0.0105,-0.0089,-0.0029,-0.0017,-0.0064,0.003,0.0043,0.0083,0.0079,0.0099,0.0103,0.0188,0.0188,0.0188,0.0123,0,0,0,0,0,0,-0.022,-0.0214,-0.0217,-0.0174,-0.0164,-0.0143,-0.0113,-0.0103,-0.0086,-0.0081,-0.0019,-0.0008,0.0032,0.0076,0.0087,0.0085,0.0106,0.0189,0.0188,0.0188,0.0126,0.0121,0.0117,0,0,0,0,0,-0.0222,-0.0231,-0.0218,-0.0213,-0.017,-0.0144,-0.0136,-0.0101,-0.0086,-0.0084,-0.004,-0.001,0.0082,0.0079,0.0092,0.0092,0.0189,0.0188,0.0188,0.0128,0.0122,0.0117,0,0,0,0,0,0,-0.0259,-0.0225,-0.021,-0.0208,-0.0181,-0.0135,-0.0131,-0.0107,-0.0071,-0.0066,-0.0008,0.0006,0.0038,0.0074,0.0069,0.0118,0.014,0.0142,0.0089,0.0084,0.008,0.0069,0.0109,0,0,0,0,0,-0.0269,-0.0267,-0.0229,-0.0228,-0.0218,-0.0176,-0.0162,-0.0139,-0.01,-0.0084,-0.0041,0.0006,0.0047,0.0071,0.011,0.0139,0.0181,0.0147,0.0142,0.0138,0.0138,0.0201,0.0203,0.0187,0.0187,0.0187,0,0,-0.0283,-0.0265,-0.0263,-0.0236,-0.0212,-0.0204,-0.0166,-0.0151,-0.014,-0.0077,-0.0052,-0.0008,0.005,0.0081,0.0099,0.0111,0.0162,0.0138,0.0134,0.0137,0.0201,0.0203,0.0204,0.0187,0.0187,0.0187,0,0,-0.0314,-0.0294,-0.0304,-0.0286,-0.0258,-0.023,-0.0229,-0.0187,-0.0165,-0.0136,-0.0088,-0.0046,0.0012,0.0056,0.0086,0.0083,0.0135,0.0091,0.0066,0.0126,0.0128,0.013,0.0174,0.018,0.0092,0.0092,0.0092,0,-0.0334,-0.0338,-0.0303,-0.0307,-0.0297,-0.0247,-0.0253,-0.0223,-0.0173,-0.0153,-0.0138,-0.0044,0.0002,0.0053,0.005,0.0074,0.0111,0.0078,0.012,0.0124,0.0127,0.0171,0.0179,0.0089,0.0089,0.0089,0.009,0,-0.0369,-0.0372,-0.0377,-0.0364,-0.0348,-0.0347,-0.0302,-0.0282,-0.0249,-0.0211,-0.016,-0.0094,-0.0035,-0.0017,0.0016,0.0061,0.008,0.0104,0.0131,0.0125,0.0171,0.0181,0.0084,0.0085,0.0086,0.0087,0,0,-0.0416,-0.0406,-0.0409,-0.0414,-0.038,-0.0372,-0.0352,-0.0316,-0.0299,-0.0245,-0.0214,-0.0143,-0.01,-0.0064,-0.0012,0.004,0.009,0.0075,0.008,0.0113,0.0214,0.0239,0.0253,0.0123,0.0125,0.0126,0.0233,0,-0.0456,-0.0488,-0.0461,-0.048,-0.049,-0.0438,-0.0423,-0.038,-0.0332,-0.0288,-0.0209,-0.016,-0.0119,-0.009,-0.0032,0.0065,0.0115,0.0058,0.022,0.0225,0.0245,0.0265,0.0234,0.0328,0.0243,0.0244,0.0245,0,-0.0501,-0.0516,-0.0549,-0.054,-0.0538,-0.0536,-0.0498,-0.0477,-0.0396,-0.0356,-0.0287,-0.0218,-0.0131,-0.0099,0.006,0.0023,0.0108,0.018,0.0187,0.0242,0.0269,0.0325,0.035,0.0262,0.0261,0.026,0.0259,0,-0.0561,-0.0574,-0.0605,-0.0604,-0.0584,-0.0583,-0.0566,-0.0502,-0.0477,-0.0396,-0.0362,-0.0249,-0.0183,-0.0064,0.0087,0.0077,0.0263,0.0272,0.0374,0.0376,0.0399,0.0401,0.0381,0.0381,0.0381,0.038,0.038,0,-0.0616,-0.0639,-0.0639,-0.0658,-0.0686,-0.0644,-0.0647,-0.0609,-0.0543,-0.0505,-0.0403,-0.0339,-0.0169,-0.0039,0.0083,0.0264,0.0267,0.0377,0.0413,0.0374,0.0372,0.0355,0.035,0.0384,0.0383,0.0383,0.0382,0,-0.0674,-0.0676,-0.0712,-0.0714,-0.0718,-0.0737,-0.0713,-0.0705,-0.0633,-0.0579,-0.0553,-0.0394,-0.0217,-0.0046,0.0166,0.0266,0.0428,0.0488,0.0423,0.0449,0.0496,0.0487,0.0609,0.0611,0.0612,0.0614,0.0615,0,-0.0707,-0.0733,-0.0767,-0.0795,-0.0801,-0.0818,-0.0825,-0.0765,-0.0741,-0.0602,-0.0575,-0.0394,-0.0251,0.006,0.0275,0.0497,0.0491,0.0582,0.0561,0.05,0.0523,0.0511,0.05,0.0561,0.0562,0.0562,0.0563,0,-0.0764,-0.0774,-0.0806,-0.0872,-0.09,-0.0923,-0.092,-0.0911,-0.0816,-0.0745,-0.0602,-0.0475,-0.0155,0.0102,0.0384,0.0503,0.0542,0.06,0.058,0.0503,0.0463,0.0482,0.0472,0.0567,0.0567,0.0566,0.0566,0.0566,-0.0798,-0.0841,-0.0885,-0.0942,-0.0981,-0.1012,-0.1021,-0.0988,-0.0938,-0.0806,-0.0644,-0.0431,-0.0152,0.0249,0.0459,0.0633,0.0627,0.0657,0.0652,0.0647,0.0618,0.0583,0.0703,0.0703,0.0703,0.0704,0.0704,0,-0.084,-0.0887,-0.095,-0.1018,-0.1069,-0.1069,-0.1068,-0.1039,-0.098,-0.0832,-0.0665,-0.0336,-0.0038,0.023,0.0524,0.0705,0.0679,0.0714,0.065,0.0644,0.064,0.0606,0.0691,0.0691,0.0692,0.0692,0,0,-0.0863,-0.0933,-0.0968,-0.107,-0.1117,-0.1147,-0.1141,-0.1079,-0.0967,-0.0813,-0.0647,-0.0393,-0.0039,0.0171,0.041,0.0555,0.054,0.0555,0.0546,0.0436,0.0429,0.0588,0.053,0,0,0,0,0]}],[{"header":{"parameterUnit":"m.s-1","parameterCategory":2,"la1":30.2991,"la2":30.254,"lo1":-89.0895,"lo2":-89.0444,"dy":0.0017,"dx":0.0017,"nx":28,"ny":28,"refTime":"2024-05-23T03:00:00:Z","depth":"4","parameterNumber":2,"parameterNumberName":"U-component_of_CURRENTS"},"data":[0,0,0,0,0,0,0,0,0,0,0,0,0,0,0,0,0,0,0,0,0,0,0,0,0,0,0,0,0,0,0,0,0,0,0,0,0,0,0,0,0,0,0,0,0,0,0,0,0,0,0,0,0,0,0,0,0,0,-0.1551,-0.1552,0,-0.1614,-0.1615,-0.1616,-0.1648,-0.1648,-0.1648,-0.1648,-0.1695,-0.1696,-0.1697,0,0,0,0,0,0,0,0,0,0,0,0,0,-0.1455,-0.1457,-0.1551,-0.1552,-0.1553,-0.1614,-0.1615,-0.1616,-0.1648,-0.1648,-0.1648,-0.1648,-0.1695,-0.1696,-0.1697,0,0,0,0,0,0,0,0,0,0,0,0,0,-0.1504,-0.1457,-0.1551,-0.1577,-0.1581,-0.1614,-0.1615,-0.1616,-0.1648,-0.1648,-0.1648,-0.1648,-0.1694,-0.1696,-0.1697,-0.1702,0,0,-0.1702,-0.1703,0,0,0,0,0,0,0,0,-0.1501,-0.1507,-0.1573,-0.1576,-0.1579,-0.1625,-0.1599,-0.1644,-0.1648,-0.162,-0.1648,-0.1649,-0.1671,-0.1675,-0.1684,-0.1704,-0.1706,-0.1702,-0.1703,-0.1704,-0.1705,0,0,0,0,0,0,0,-0.1498,-0.1504,-0.1574,-0.1574,-0.1578,-0.1586,-0.1593,-0.1607,-0.1642,-0.1623,-0.1626,-0.1635,-0.1673,-0.1682,-0.1685,-0.1707,-0.1702,-0.1704,-0.1705,-0.1705,-0.1795,-0.1796,0,0,0,0,0,0,-0.1493,-0.1501,-0.1572,-0.1576,-0.1542,-0.1587,-0.1595,-0.1609,-0.1642,-0.1648,-0.1635,-0.1637,-0.1679,-0.1683,-0.1687,-0.1755,-0.1704,-0.1706,-0.1707,-0.1793,-0.1795,-0.1797,0,0,0,0,0,0,-0.1491,-0.1499,-0.157,-0.1541,-0.1551,-0.1589,-0.1604,-0.161,-0.1646,-0.1652,-0.1657,-0.1669,-0.1679,-0.1684,-0.1726,-0.1755,-0.1706,-0.1708,-0.1792,-0.1794,-0.1796,-0.1852,0,0,0,0,0,0,-0.1488,-0.1498,-0.152,-0.1541,-0.1553,-0.1609,-0.1604,-0.1611,-0.1651,-0.1655,-0.1682,-0.1685,-0.168,-0.1724,-0.1727,-0.1756,-0.1709,-0.179,-0.1793,-0.1795,-0.1849,-0.1856,-0.1862,0,0,0,0,0,-0.1485,-0.1509,-0.152,-0.153,-0.1577,-0.161,-0.1617,-0.1643,-0.1653,-0.1676,-0.1696,-0.1686,-0.1743,-0.1726,-0.173,-0.176,-0.1789,-0.1792,-0.1795,-0.1846,-0.1855,-0.1862,0,0,0,0,0,0,-0.148,-0.1515,-0.1528,-0.1563,-0.1594,-0.1617,-0.1645,-0.166,-0.1695,-0.1705,-0.1706,-0.1712,-0.1758,-0.1753,-0.1735,-0.1793,-0.1763,-0.1767,-0.18,-0.1809,-0.1815,-0.1808,-0.171,0,0,0,0,0,-0.1488,-0.1518,-0.1548,-0.158,-0.1598,-0.1627,-0.1649,-0.1668,-0.1695,-0.1712,-0.1731,-0.175,-0.177,-0.1786,-0.1801,-0.1836,-0.1811,-0.1857,-0.1864,-0.187,-0.1867,-0.1863,-0.1868,-0.1807,-0.1807,-0.1807,0,0,-0.1497,-0.152,-0.1538,-0.1582,-0.1608,-0.1641,-0.1642,-0.1685,-0.1717,-0.171,-0.1767,-0.1779,-0.1785,-0.1824,-0.1844,-0.1827,-0.1874,-0.1874,-0.1878,-0.1873,-0.1867,-0.1872,-0.1877,-0.1809,-0.1809,-0.1808,0,0,-0.1517,-0.1549,-0.1577,-0.1607,-0.1653,-0.1671,-0.169,-0.1731,-0.1758,-0.1807,-0.1809,-0.1839,-0.1876,-0.1882,-0.1888,-0.1943,-0.1912,-0.1954,-0.1984,-0.1981,-0.1985,-0.1989,-0.1959,-0.1959,-0.1957,-0.1957,-0.1957,0,-0.1527,-0.1564,-0.1592,-0.1626,-0.1655,-0.1688,-0.1724,-0.1756,-0.1807,-0.1827,-0.1834,-0.1887,-0.1899,-0.1931,-0.1954,-0.1958,-0.1942,-0.1952,-0.1988,-0.1991,-0.1994,-0.1962,-0.1962,-0.196,-0.1959,-0.1959,-0.1959,0,-0.1558,-0.16,-0.1622,-0.1674,-0.1708,-0.1748,-0.1789,-0.1831,-0.1865,-0.1888,-0.1939,-0.1955,-0.1979,-0.1995,-0.1994,-0.2026,-0.2003,-0.1997,-0.1964,-0.2004,-0.1968,-0.1967,-0.1964,-0.1963,-0.1962,-0.1961,0,0,-0.1542,-0.1628,-0.1637,-0.167,-0.1738,-0.1765,-0.1825,-0.1876,-0.1909,-0.1959,-0.1993,-0.2037,-0.2043,-0.205,-0.2054,-0.2059,-0.2069,-0.2044,-0.2042,-0.2007,-0.2044,-0.1915,-0.1901,-0.2073,-0.2074,-0.2074,-0.2008,0,-0.1559,-0.1624,-0.1666,-0.1732,-0.1768,-0.1819,-0.1867,-0.1918,-0.1959,-0.2001,-0.2024,-0.2059,-0.2064,-0.208,-0.2089,-0.2077,-0.207,-0.2086,-0.2016,-0.2013,-0.1889,-0.1897,-0.2075,-0.2007,-0.2006,-0.2006,-0.2006,0,-0.1564,-0.1612,-0.1678,-0.1758,-0.1779,-0.1825,-0.1896,-0.1944,-0.2005,-0.2035,-0.2071,-0.2087,-0.2113,-0.2108,-0.2098,-0.2109,-0.2083,-0.2066,-0.2062,-0.1919,-0.1882,-0.1961,-0.2003,-0.2003,-0.2004,-0.2004,-0.2004,0,-0.1519,-0.1613,-0.1667,-0.1697,-0.1793,-0.1834,-0.1885,-0.1954,-0.1988,-0.2054,-0.2073,-0.2109,-0.2117,-0.2109,-0.2082,-0.2096,-0.2047,-0.2055,-0.1907,-0.1897,-0.2008,-0.2005,-0.2035,-0.2035,-0.2035,-0.2035,-0.2036,0,-0.1499,-0.1545,-0.1655,-0.1683,-0.174,-0.1818,-0.1876,-0.1928,-0.1995,-0.2014,-0.2084,-0.2081,-0.212,-0.21,-0.2079,-0.1974,-0.204,-0.19,-0.187,-0.2033,-0.2033,-0.2006,-0.2004,-0.2033,-0.2033,-0.2034,-0.2034,0,-0.1431,-0.1511,-0.1573,-0.1684,-0.1719,-0.1757,-0.1857,-0.1883,-0.1967,-0.199,-0.201,-0.2059,-0.2025,-0.203,-0.1998,-0.1939,-0.1874,-0.182,-0.1973,-0.1956,-0.1727,-0.1728,-0.1644,-0.1639,-0.1635,-0.1631,-0.1628,0,-0.1398,-0.1427,-0.1548,-0.1579,-0.1633,-0.1707,-0.1743,-0.1848,-0.1867,-0.1946,-0.1929,-0.1941,-0.1952,-0.1787,-0.1826,-0.1755,-0.1741,-0.1698,-0.1733,-0.1706,-0.1687,-0.1695,-0.1703,-0.1621,-0.162,-0.1619,-0.1618,0,-0.1322,-0.1377,-0.1424,-0.1489,-0.154,-0.1586,-0.1648,-0.1646,-0.1744,-0.1844,-0.1787,-0.1761,-0.1711,-0.168,-0.163,-0.1591,-0.1727,-0.1652,-0.1662,-0.1694,-0.1677,-0.1664,-0.1677,-0.1603,-0.1605,-0.1607,-0.1607,0,-0.1254,-0.1265,-0.133,-0.1366,-0.1426,-0.1425,-0.1485,-0.1495,-0.1527,-0.1626,-0.1598,-0.1618,-0.1677,-0.1591,-0.1549,-0.1496,-0.1482,-0.1445,-0.1465,-0.1483,-0.1463,-0.142,-0.1227,0,0,0,0,0,-0.1177,-0.1171,-0.1199,-0.1224,-0.1275,-0.1302,-0.1393,-0.1456,-0.1554,-0.1466,-0.1529,-0.1478,-0.1419,-0.1437,-0.1344,-0.1479,-0.1489,-0.1367,-0.1459,-0.152,-0.1537,-0.1531,0,0,0,0,0,0,-0.1124,-0.1149,-0.115,-0.1082,-0.107,-0.1101,-0.115,-0.1229,-0.1195,-0.1309,-0.1277,-0.1377,-0.1334,-0.1425,-0.1302,-0.1309,-0.1336,-0.14,-0.1396,-0.151,-0.1525,-0.1539,-0.154,0,0,0,0,0]},{"header":{"parameterUnit":"m.s-1","parameterCategory":2,"la1":30.2991,"la2":30.254,"lo1":-89.0895,"lo2":-89.0444,"dy":0.0017,"dx":0.0017,"nx":28,"ny":28,"refTime":"2024-05-23T03:00:00:Z","depth":"4","parameterNumber":3,"parameterNumberName":"V-component_of_CURRENTS"},"data":[0,0,0,0,0,0,0,0,0,0,0,0,0,0,0,0,0,0,0,0,0,0,0,0,0,0,0,0,0,0,0,0,0,0,0,0,0,0,0,0,0,0,0,0,0,0,0,0,0,0,0,0,0,0,0,0,0,0,-0.0136,-0.0136,0,-0.0076,-0.0076,-0.0075,-0.0041,-0.0041,-0.0041,-0.0041,0.0057,0.0059,0.0062,0,0,0,0,0,0,0,0,0,0,0,0,0,-0.0185,-0.0184,-0.0137,-0.0136,-0.0135,-0.0077,-0.0076,-0.0075,-0.0041,-0.0041,-0.0041,-0.004,0.0056,0.0059,0.0062,0,0,0,0,0,0,0,0,0,0,0,0,0,-0.0148,-0.0184,-0.0137,-0.0112,-0.0109,-0.0077,-0.0076,-0.0075,-0.0041,-0.0041,-0.0041,-0.004,0.0055,0.0059,0.0062,0.0084,0,0,0.0074,0.0076,0,0,0,0,0,0,0,0,-0.015,-0.0146,-0.0116,-0.0113,-0.011,-0.0067,-0.0057,-0.002,-0.0041,-0.0066,-0.0041,-0.004,0.0018,0.0025,0.0037,0.0089,0.0093,0.0074,0.0077,0.0078,0.0079,0,0,0,0,0,0,0,-0.0153,-0.0148,-0.0112,-0.0115,-0.0112,-0.0091,-0.0086,-0.005,-0.0024,-0.0064,-0.0061,-0.0056,0.002,0.0033,0.004,0.0095,0.0074,0.0078,0.008,0.0082,0.0171,0.0171,0,0,0,0,0,0,-0.0163,-0.0151,-0.0114,-0.011,-0.0131,-0.009,-0.0085,-0.008,-0.0025,-0.0017,-0.0056,-0.0054,0.0027,0.0035,0.0043,0.0067,0.0078,0.0082,0.0084,0.0171,0.0171,0.0171,0,0,0,0,0,0,-0.0165,-0.0161,-0.0116,-0.013,-0.0123,-0.009,-0.0085,-0.0079,-0.0068,-0.0019,-0.001,-0.0051,0.0027,0.0038,0.0074,0.0071,0.0084,0.0087,0.0171,0.0171,0.0171,0.0119,0,0,0,0,0,0,-0.0166,-0.0162,-0.0165,-0.013,-0.0122,-0.0102,-0.0085,-0.0078,-0.0065,-0.0062,-0.0012,-0.0003,0.0028,0.0068,0.0078,0.0077,0.009,0.0171,0.0171,0.0171,0.0121,0.0117,0.0115,0,0,0,0,0,-0.0168,-0.0172,-0.0165,-0.0161,-0.0127,-0.0103,-0.0097,-0.0072,-0.0065,-0.0062,-0.0027,-0.0005,0.0076,0.0071,0.0083,0.0083,0.0171,0.0171,0.0171,0.0122,0.0118,0.0115,0,0,0,0,0,0,-0.0193,-0.0167,-0.016,-0.0155,-0.0134,-0.0097,-0.0093,-0.0076,-0.0047,-0.0045,0.0,0.0012,0.0041,0.0071,0.0065,0.0109,0.0126,0.0128,0.0084,0.0081,0.0078,0.0065,0.0093,0,0,0,0,0,-0.0201,-0.0199,-0.0169,-0.0167,-0.0159,-0.0128,-0.0116,-0.01,-0.0069,-0.0056,-0.0021,0.0017,0.0051,0.0072,0.0106,0.0134,0.0163,0.0141,0.0138,0.0135,0.0132,0.0179,0.018,0.0172,0.0172,0.0172,0,0,-0.021,-0.0197,-0.0195,-0.0172,-0.0155,-0.0147,-0.012,-0.0107,-0.0099,-0.0049,-0.0028,0.0008,0.0056,0.0084,0.01,0.0109,0.0151,0.0135,0.0133,0.0131,0.0179,0.018,0.0181,0.0172,0.0172,0.0172,0,0,-0.0228,-0.0216,-0.0221,-0.0207,-0.0185,-0.0165,-0.0164,-0.013,-0.0114,-0.0088,-0.0053,-0.0018,0.0034,0.0068,0.0093,0.0095,0.0132,0.0104,0.0081,0.0126,0.0127,0.0128,0.0156,0.016,0.0104,0.0104,0.0104,0,-0.0242,-0.0244,-0.0218,-0.0218,-0.0213,-0.0176,-0.0181,-0.0157,-0.0116,-0.0103,-0.009,-0.0014,0.0026,0.0065,0.0066,0.0088,0.0114,0.0089,0.0121,0.0123,0.0125,0.0154,0.0159,0.0102,0.0102,0.0102,0.0102,0,-0.0261,-0.0265,-0.0267,-0.0258,-0.0245,-0.0244,-0.0211,-0.0197,-0.0174,-0.0147,-0.0108,-0.0051,-0.0007,0.0012,0.0041,0.0075,0.0087,0.0109,0.0127,0.0123,0.0153,0.0159,0.0098,0.0099,0.01,0.01,0,0,-0.0289,-0.0284,-0.0287,-0.0296,-0.027,-0.0265,-0.025,-0.0227,-0.0221,-0.0175,-0.0158,-0.0094,-0.0063,-0.0033,0.0011,0.0052,0.0088,0.0082,0.0085,0.0102,0.0175,0.0162,0.0168,0.0116,0.0117,0.0118,0.0186,0,-0.0317,-0.0339,-0.0321,-0.0341,-0.035,-0.0316,-0.0307,-0.0279,-0.0247,-0.0219,-0.0155,-0.0121,-0.0079,-0.0059,-0.0011,0.0066,0.0103,0.0066,0.0183,0.0186,0.017,0.0175,0.0121,0.019,0.0192,0.0193,0.0194,0,-0.0343,-0.0357,-0.0386,-0.0393,-0.0393,-0.0396,-0.0383,-0.0368,-0.0314,-0.0286,-0.0236,-0.0182,-0.0113,-0.0079,0.0045,0.0019,0.0088,0.0147,0.0152,0.0163,0.0185,0.02,0.0206,0.0205,0.0204,0.0203,0.0203,0,-0.0387,-0.0403,-0.0434,-0.0436,-0.0431,-0.044,-0.0435,-0.0395,-0.0384,-0.0329,-0.031,-0.0221,-0.0173,-0.0074,0.0052,0.005,0.0187,0.0203,0.0254,0.0254,0.0267,0.0266,0.0286,0.0285,0.0285,0.0285,0.0285,0,-0.0421,-0.0447,-0.0463,-0.0481,-0.0519,-0.0493,-0.0513,-0.0491,-0.0452,-0.0435,-0.0352,-0.0311,-0.0167,-0.0067,0.0039,0.0165,0.0181,0.0249,0.0273,0.0242,0.0237,0.0271,0.0269,0.0288,0.0287,0.0287,0.0286,0,-0.0457,-0.0468,-0.0509,-0.0529,-0.0542,-0.0569,-0.0575,-0.058,-0.0535,-0.0509,-0.0492,-0.0371,-0.0237,-0.0096,0.0075,0.0145,0.0268,0.0309,0.0254,0.0275,0.0303,0.0298,0.0363,0.0363,0.0363,0.0363,0.0363,0,-0.0476,-0.0501,-0.0556,-0.0592,-0.0607,-0.0641,-0.0662,-0.0632,-0.0625,-0.0539,-0.0525,-0.0394,-0.03,-0.0072,0.0073,0.0262,0.0291,0.0337,0.0327,0.0295,0.0313,0.0307,0.0301,0.0364,0.0364,0.0364,0.0364,0,-0.051,-0.0534,-0.057,-0.0647,-0.069,-0.0728,-0.0748,-0.0745,-0.0691,-0.0653,-0.0537,-0.0404,-0.0253,-0.0073,0.0076,0.0213,0.0296,0.0339,0.0339,0.0331,0.0297,0.0313,0.0307,0.0364,0.0364,0.0364,0.0364,0,-0.0535,-0.0574,-0.0628,-0.069,-0.0753,-0.079,-0.0796,-0.0765,-0.0742,-0.0631,-0.0593,-0.0411,-0.0299,-0.0097,0.0042,0.0172,0.02,0.0225,0.0232,0.0233,0.0175,0.0112,0.0143,0,0,0,0,0,-0.0553,-0.0599,-0.0665,-0.0734,-0.0796,-0.0824,-0.0839,-0.0825,-0.077,-0.0695,-0.0636,-0.0486,-0.0254,-0.0148,-0.002,0.0026,0.0204,0.0177,0.023,0.0367,0.0367,0.032,0,0,0,0,0,0,-0.0568,-0.0633,-0.0667,-0.0753,-0.0802,-0.086,-0.0867,-0.0831,-0.0774,-0.0698,-0.057,-0.0478,-0.0252,-0.0326,-0.0023,0.0018,0.0063,0.0295,0.0297,0.0367,0.0367,0.0366,0.0318,0,0,0,0,0]}]]